Henderson, NV

2:54 AM PDT on September 30, 2016 (GMT -0700)
Henderson

Weather History for KHND - January, 2013

Change the Weather History Date:

Sunday, January 27, 2013

  Actual Average (KLAS) Record (KLAS)
Temperature  
Mean Temperature 51 °F 50 °F  
Max Temperature 59 °F 59 °F 73 °F (1971)
Min Temperature 43 °F 40 °F 12 °F (1937)
Degree Days  
Heating Degree Days 14 15  
Month to date heating degree days 445  
Since 1 July heating degree days 1292  
Cooling Degree Days 0 0  
Month to date cooling degree days 0  
Year to date cooling degree days 0  
Growing Degree Days 1 (Base 50)    
Moisture  
Dew Point 36 °F    
Average Humidity 55    
Maximum Humidity 80    
Minimum Humidity 42    
Precipitation  
Precipitation 0.00 in 0.02 in 0.50 in (2008)
Month to date precipitation 0.47  
Year to date precipitation 0.47  
Snow  
Snow 0.00 in 0.00 in T in (1957)
Month to date snowfall 0.0  
Since 1 July snowfall 0.2  
Snow Depth -    
Sea Level Pressure  
Sea Level Pressure 29.86 in    
Wind  
Wind Speed 16 mph (SSW)    
Max Wind Speed 28 mph    
Max Gust Speed 34 mph    
Visibility 10 miles    
Events      
T = Trace of Precipitation, MM = Missing Value Source: NWS Daily Summary

Daily Weather History Graph

Daily Weather History Graph

Search for Another Location

Airport or City:

Trip Planner

Search our weather history database for the weather conditions in past years. The results will help you decide how hot, cold, wet, or windy it might be!

Date:

Astronomy

Jan. 27, 2013 Rise Set
Actual Time 6:44 AM PST 5:02 PM PST
Civil Twilight 6:17 AM PST 5:29 PM PST
Nautical Twilight 5:46 AM PST 6:00 PM PST
Astronomical Twilight 5:16 AM PST 6:31 PM PST
Moon 5:57 PM PST (1/27) 6:42 AM PST (1/27)
Length of Visible Light 11h 12m
Length of Day
10h 18m
Full, 100% of the Moon is Illuminated
Jan 27
Full
Feb 3
Last Quarter
Feb 9
New
Feb 17
First Quarter
Feb 25
Full

Hourly Weather History & Observations

Time (PST) Temp. Windchill Dew Point Humidity Pressure Visibility Wind Dir Wind Speed Gust Speed Precip Events Conditions
12:56 AM 50.9 °F - 45.0 °F 80% 29.89 in 10.0 mi SSE 8.1 mph - N/A   Mostly Cloudy
1:56 AM 52.0 °F - 41.9 °F 69% 29.87 in 10.0 mi South 13.8 mph 18.4 mph N/A   Clear
2:56 AM 52.9 °F - 41.9 °F 66% 29.85 in 10.0 mi SSW 23.0 mph - N/A   Clear
3:56 AM 52.9 °F - 41.0 °F 64% 29.87 in 10.0 mi South 12.7 mph - N/A   Partly Cloudy
4:56 AM 52.0 °F - 41.0 °F 66% 29.86 in 10.0 mi South 16.1 mph - N/A   Partly Cloudy
5:56 AM 52.9 °F - 38.8 °F 59% 29.84 in 10.0 mi SSW 25.3 mph 34.5 mph N/A   Clear
6:56 AM 52.0 °F - 39.9 °F 63% 29.86 in 10.0 mi SSW 21.9 mph 28.8 mph N/A   Clear
7:56 AM 54.0 °F - 39.9 °F 59% 29.86 in 10.0 mi SW 25.3 mph 32.2 mph N/A   Clear
8:56 AM 54.9 °F - 38.8 °F 55% 29.87 in 10.0 mi SW 27.6 mph 32.2 mph N/A   Clear
9:56 AM 55.9 °F - 38.8 °F 53% 29.88 in 10.0 mi SW 23.0 mph - N/A   Clear
10:56 AM 57.9 °F - 39.9 °F 51% 29.88 in 10.0 mi SSW 18.4 mph 24.2 mph N/A   Partly Cloudy
11:56 AM 55.9 °F - 37.9 °F 51% 29.85 in 10.0 mi South 19.6 mph 24.2 mph N/A   Partly Cloudy
12:56 PM 57.9 °F - 36.9 °F 45% 29.83 in 10.0 mi SSW 18.4 mph - N/A   Mostly Cloudy
1:56 PM 59.0 °F - 36.9 °F 44% 29.82 in 10.0 mi SSW 17.3 mph - N/A   Clear
2:56 PM 57.9 °F - 34.9 °F 42% 29.83 in 10.0 mi SW 13.8 mph - N/A   Clear
3:56 PM 55.4 °F - 33.8 °F 44% 29.84 in 10.0 mi SW 19.6 mph - N/A   Clear
4:56 PM 52.0 °F - 31.1 °F 45% 29.84 in 10.0 mi SW 18.4 mph - N/A   Clear
5:56 PM 50.9 °F - 32.0 °F 48% 29.86 in 10.0 mi South 12.7 mph - N/A   Scattered Clouds
6:56 PM 50.0 °F - 31.1 °F 48% 29.88 in 10.0 mi SSW 10.4 mph 18.4 mph N/A   Mostly Cloudy
7:56 PM 48.9 °F - 30.0 °F 48% 29.88 in 10.0 mi WSW 5.8 mph - N/A   Clear
8:56 PM 47.8 °F - 30.0 °F 50% 29.88 in 10.0 mi WSW 8.1 mph - N/A   Scattered Clouds
9:56 PM 45.0 °F 43.5 °F 30.0 °F 56% 29.89 in 10.0 mi East 3.5 mph - N/A   Scattered Clouds
10:56 PM 43.9 °F 37.9 °F 30.0 °F 58% 29.88 in 10.0 mi South 11.5 mph - N/A   Partly Cloudy
11:56 PM 43.9 °F 37.2 °F 29.1 °F 56% 29.89 in 10.0 mi SSW 13.8 mph - N/A   Mostly Cloudy